Powrót do katalogu

STARLINK-31126

AktywnyŁącznośćVLEO
NORAD 58675·PAYLOAD·🇺🇸 United States

Wystrzelony Dec 29, 2023 z Cape Canaveral Space Force Station

Loading…

Następne Przeloty (najbliższe 24 godziny)

TLE

ŚwieżeSource: CelesTrak SupGP

Epoka: Sep 14, 2026, 22:39 UTC

1 58675C 23211J   26257.94423611  .00038125  00000+0  13810-2 0  2572
2 58675  43.0031  96.0136 0001307 274.6475  94.2198 15.27557449    18

Śledź STARLINK-31126 w czasie rzeczywistym z AllMySat

Download on the App Store